sat.trackr.live / text

‹ back to catalog

STARLINK-2462

NORAD 48121 · 2021-027AF

PAYLOAD ACTIVE UNKNOWN

§ Identity

Operator
Country
US
Launch date
2021-04-07
Launch site
AFETR
Launch vehicle
Mass (kg)
RCS (m²)

Purposes: comms

External: N2YO · Heavens-Above · Gunter

§ Orbital elements

Epoch: 2026-09-17T11:56:53.758752Z

Period
94.01 min
Inclination
53.1615°
Eccentricity
0.0001593
Mean motion
15.31708511 rev/d
Perigee alt
469.6 km
Apogee alt
471.8 km
Semi-major
6,848.9 km
B*
1.1756e-4
RAAN
342.3077°
Arg perigee
86.3023°
Mean anomaly
273.8161°
Rev number
30,204

§ Raw data

STARLINK-24621 48121U 21027AF  26260.49784443  .00003285  00000+0  11756-3 0  99972 48121  53.1615 342.3077 0001593  86.3023 273.8161 15.31708511302044

JSON: /api/v1/satellites/48121 · /tle

For live sub-satellite position, see the globe view (requires WebGL).

§ Visibility from observer

Set your observer location to see the next 7 days of passes ≥ 10°. The values pass through the URL so the page stays shareable.

No JS? Fill the form by hand. The geolocation button needs JavaScript.